Weather in Pokrov

Russia / Vladimir Oblast     55°54′59″N   39°10′24″E
temp.,
°C
wind,
m/s
gust,
m/s
humid.,
%
clouds,
%
prec.,
mm/h
press.,
hPa
HPBL,
m
3 march, wed
wed300:00−2nw3119382 0.2 1009595
03:00−5nnw4128861 0.3 1012465
06:00−7nw4139111 0.0 1013518
09:00−5nw5128753 0.0 1014844
12:00−2nw598556 0.0 1014906
15:00−1wnw499078 0.1 1013793
18:00−1w4109398 0.2 1011762
21:00−1w5119299 0.4 1009860
4 march, thu
thu400:00−2wsw51192100 0.1 1005778
03:000wsw61397100 1.1 1003928
06:00+1w71397100 1.4 9991051
09:00+1w71495100 2.3 9991284
12:000wnw6116992 0.3 10001345
15:000wnw477696 0.3 10001045
18:00−3nw2389100 0.0 100048
21:00−5n1293100 0.0 100135
5 march, fri
fri500:00−7nnw2293100 0.0 100229
03:00−10nnw229575 0.0 100326
06:00−11nnw22950 0.0 100421
09:00−8wnw11920 0.0 1006113
12:00−4sw128464 0.0 1006473
15:00−3nw129082 0.9 1008390
18:00−6wnw2688100 0.6 1009160
21:00−9wnw379473 0.6 1011174
6 march, sat
sat600:00−11wnw239527 0.0 101358
03:00−12wnw239620 0.0 101449
06:00−13nnw269672 0.0 1015161
09:00−13nnw368643 0.0 1016298
12:00−9nnw36760 0.0 1016876
15:00−8nw367650 0.1 10161130
18:00−10w2388100 0.1 101590
21:00−12wsw379187 0.1 1015126
7 march, sun
sun700:00−13sw399223 0.0 1012223
03:00−11ssw4129241 0.0 1008410
06:00−8sw61492100 0.5 1003985
09:00−6sw71492100 1.8 9971166
12:00−3sw71393100 1.4 9941153
15:00−5wnw51186100 3.7 993986
18:00−8sse338167 0.1 99342
21:00−8w4128368 0.5 994639